Location: Unspecified
(0.0000°N, 0.0000°E)
Time: 23:12:04
(UTC+00:00)

Vanguard 2 - All Passes

Search period start: 19 November 2019 00:00
Search period end: 29 November 2019 00:00
Orbit: 554 x 2937 km, 32.9° (Epoch: 18 November)

Date Brightness Start Highest point End Pass type
(mag) Time Alt. Az. Time Alt. Az. Time Alt. Az.
19 Nov - 01:36:39 10° SSW 01:51:29 33° SSE 02:05:43 10° E visible
19 Nov - 03:47:42 10° SW 04:05:46 73° SE 04:19:19 10° ENE visible
19 Nov - 06:02:26 10° WSW 06:17:39 46° NW 06:27:50 10° NNE daylight
19 Nov - 08:26:12 10° NW 08:28:30 11° NW 08:30:36 10° NNW daylight
19 Nov - 15:01:24 10° N 15:04:10 17° NE 15:07:20 10° E daylight
19 Nov - 17:07:45 10° WNW 17:12:20 50° SSW 17:19:19 10° SE daylight
19 Nov - 19:19:06 10° SW 19:23:16 15° SSW 19:28:33 10° SSE visible
19 Nov - 21:36:09 10° S 21:37:42 10° S 21:39:19 10° S visible
19 Nov - 23:45:01 10° SSW 23:54:36 18° SSE 00:05:16 10° ESE visible
20 Nov - 01:54:20 10° SW 02:10:21 42° SSE 02:25:17 10° E visible
20 Nov - 04:05:52 10° SW 04:24:04 90° NNW 04:37:28 10° NE visible
20 Nov - 06:22:02 10° W 06:35:40 34° NW 06:45:11 10° NNE daylight
20 Nov - 15:18:21 10° NNW 15:22:01 33° NE 15:26:33 10° ESE daylight
20 Nov - 17:26:15 10° W 17:30:37 30° SSW 17:36:55 10° SSE daylight
20 Nov - 19:40:05 10° SSW 19:42:17 11° S 19:44:44 10° S visible
20 Nov - 21:55:48 10° S 21:57:25 10° S 21:59:05 10° SSE visible
21 Nov - 00:02:40 10° SSW 00:13:58 23° SSE 00:26:30 10° ESE visible
21 Nov - 02:12:03 10° SW 02:28:59 52° SSE 02:44:24 10° ENE visible
21 Nov - 04:24:18 10° WSW 04:42:14 73° NW 04:55:23 10° NE visible
21 Nov - 06:42:16 10° W 06:53:50 25° NW 07:02:19 10° NNE daylight
21 Nov - 15:35:53 10° NW 15:39:51 67° NE 15:45:03 10° ESE daylight
21 Nov - 17:45:17 10° WSW 17:49:05 19° SSW 17:54:08 10° SSE daylight
21 Nov - 22:13:12 10° S 22:17:07 11° SSE 22:21:25 10° SSE visible
22 Nov - 00:20:14 10° SSW 00:33:04 28° SSE 00:47:10 10° E visible
22 Nov - 02:29:52 10° SW 02:47:27 65° SE 03:03:07 10° ENE visible
22 Nov - 04:43:04 10° WSW 05:00:22 57° NW 05:13:05 10° NE visible
22 Nov - 07:03:17 10° WNW 07:12:13 18° NW 07:19:12 10° N daylight
22 Nov - 13:48:27 10° NNE 13:49:38 11° NNE 13:50:49 10° NE daylight
22 Nov - 15:53:49 10° WNW 15:57:48 61° SSW 16:03:06 10° SE daylight
22 Nov - 18:05:16 10° SW 18:07:45 12° SSW 18:10:37 10° S visible
22 Nov - 22:30:26 10° S 22:36:40 14° SSE 22:43:49 10° SE visible
23 Nov - 00:37:46 10° SSW 00:51:53 36° SSE 01:07:16 10° E visible
23 Nov - 02:47:52 10° SW 03:05:48 80° SE 03:21:30 10° ENE visible
23 Nov - 05:02:15 10° WSW 05:18:31 45° NW 05:30:38 10° NNE visible
23 Nov - 07:25:25 10° NW 07:30:51 13° NNW 07:35:29 10° N daylight
23 Nov - 14:04:32 10° NNW 14:07:41 22° NE 14:10:53 10° E daylight
23 Nov - 16:12:11 10° W 16:15:55 32° SSW 16:20:45 10° SSE daylight
23 Nov - 22:47:39 10° SSW 22:56:00 18° SSE 23:05:50 10° ESE visible
24 Nov - 00:55:21 10° SW 01:10:28 45° SE 01:26:49 10° E visible
24 Nov - 03:06:03 10° WSW 03:24:03 83° NW 03:39:37 10° NE visible
24 Nov - 05:21:57 10° W 05:36:46 34° NW 05:48:03 10° NNE visible
24 Nov - 14:21:49 10° NW 14:25:39 43° NE 14:29:38 10° ESE daylight
24 Nov - 16:31:09 10° WSW 16:34:11 18° SSW 16:37:53 10° SSE daylight
24 Nov - 23:04:55 10° SSW 23:15:02 23° SSE 23:27:14 10° ESE visible
25 Nov - 01:13:01 10° SW 01:28:54 57° SE 01:45:53 10° ENE visible
25 Nov - 03:24:32 10° WSW 03:42:17 68° NW 03:57:32 10° NE visible
25 Nov - 05:42:17 10° W 05:55:12 26° NNW 06:05:19 10° NNE daylight
25 Nov - 14:39:35 10° WNW 14:43:34 85° SW 14:47:50 10° SE daylight
25 Nov - 16:51:43 10° SSW 16:52:38 10° SSW 16:53:35 10° S daylight
25 Nov - 23:22:13 10° SSW 23:33:47 29° SSE 23:47:57 10° E visible
26 Nov - 01:30:49 10° SW 01:47:13 71° SE 02:04:33 10° ENE visible
26 Nov - 03:43:21 10° WSW 04:00:33 54° NW 04:15:14 10° NE visible
26 Nov - 06:03:18 10° WNW 06:13:53 20° NNW 06:22:26 10° NNE daylight
26 Nov - 12:50:03 10° NNW 12:53:11 17° NNE 12:55:57 10° ENE daylight
26 Nov - 14:57:47 10° WNW 15:01:31 39° SSW 15:05:35 10° SE daylight
26 Nov - 21:34:37 10° S 21:38:41 12° SSE 21:43:15 10° SE visible
26 Nov - 23:39:38 10° SSW 23:52:18 38° SE 00:08:00 10° E visible
27 Nov - 01:48:48 10° SW 02:05:30 87° SE 02:22:54 10° NE visible
27 Nov - 04:02:35 10° W 04:18:55 42° NW 04:32:50 10° NNE visible
27 Nov - 06:25:08 10° NW 06:32:51 15° NNW 06:39:22 10° N daylight
27 Nov - 13:07:07 10° NNW 13:11:22 32° NNE 13:14:56 10° E daylight
27 Nov - 15:16:35 10° W 15:19:35 20° SSW 15:22:48 10° SSE daylight
27 Nov - 21:50:54 10° S 21:57:40 16° SSE 22:05:55 10° ESE visible
27 Nov - 23:57:07 10° SW 00:10:38 48° SE 00:27:30 10° ENE visible
28 Nov - 02:07:01 10° WSW 02:23:46 77° NW 02:40:59 10° NE visible
28 Nov - 04:22:21 10° W 04:37:26 33° NNW 04:50:19 10° NNE visible
28 Nov - 06:47:57 10° NW 06:52:05 11° NNW 06:55:50 10° N daylight
28 Nov - 11:18:45 10° N 11:19:53 10° NNE 11:20:54 10° NNE daylight
28 Nov - 13:24:45 10° NW 13:29:24 66° NE 13:33:18 10° ESE daylight
28 Nov - 15:36:53 10° SW 15:37:47 11° SSW 15:38:40 10° SSW daylight
28 Nov - 22:07:45 10° SSW 22:16:21 22° SSE 22:27:26 10° ESE visible
